EW9467 Weather Reports


time (UTC)temp
F
wind
direction
speed
knots
gust
knots
rain 1hr
in
rain 24hr
in
rain mn
in
humidity
%
barometer
mb
20260504214735 78 215 0.0 3.5 0.00 0.00 0.00 38 1012.0
20260504214236 77 161 0.9 3.5 0.00 0.00 0.00 36 1012.0
20260504213735 78 213 0.0 3.5 0.00 0.00 0.00 36 1012.1
20260504213234 77 183 0.9 7.8 0.00 0.00 0.00 37 1012.0
20260504212232 78 228 0.9 5.2 0.00 0.00 0.00 35 1012.0
20260504211732 78 196 0.9 5.2 0.00 0.00 0.00 35 1012.1
20260504211234 78 202 0.9 5.2 0.00 0.00 0.00 36 1012.1
20260504210734 78 277 1.7 7.0 0.00 0.00 0.00 34 1012.1
20260504210233 78 204 1.7 7.0 0.00 0.00 0.00 37 1012.1
20260504205234 78 275 0.9 5.2 0.00 0.00 0.00 34 1012.2
20260504204733 78 218 1.7 8.7 0.00 0.00 0.00 34 1012.3
20260504204230 78 199 1.7 8.7 0.00 0.00 0.00 34 1012.5
20260504203731 80 227 0.9 7.0 0.00 0.00 0.00 31 1012.4
20260504203231 79 205 0.9 3.5 0.00 0.00 0.00 33 1012.4
20260504202731 79 198 0.9 3.5 0.00 0.00 0.00 33 1012.5
20260504202230 79 245 0.9 4.3 0.00 0.00 0.00 33 1012.5
20260504201730 78 283 0.9 4.3 0.00 0.00 0.00 32 1012.6
20260504200732 77 257 1.7 3.5 0.00 0.00 0.00 35 1012.7
20260504200229 78 229 0.9 3.5 0.00 0.00 0.00 34 1012.8
20260504195728 78 213 0.0 2.6 0.00 0.00 0.00 36 1012.8
20260504195230 77 128 0.9 4.3 0.00 0.00 0.00 34 1012.8
20260504194228 78 227 1.7 7.8 0.00 0.00 0.00 36 1012.9
20260504193728 78 258 0.0 4.3 0.00 0.00 0.00 36 1012.9
20260504193228 77 125 0.0 4.3 0.00 0.00 0.00 35 1013.1
20260504192727 78 129 0.9 3.5 0.00 0.00 0.00 36 1013.2
20260504192228 78 130 0.9 3.5 0.00 0.00 0.00 36 1013.2
20260504191728 77 103 0.9 5.2 0.00 0.00 0.00 38 1013.3
20260504190726 77 213 0.0 2.6 0.00 0.00 0.00 36 1013.5
20260504190227 77 209 0.0 2.6 0.00 0.00 0.00 33 1013.5
20260504185726 77 290 0.9 2.6 0.00 0.00 0.00 36 1013.6
20260504184727 76 283 0.9 3.5 0.00 0.00 0.00 36 1013.7
20260504184226 76 89 0.9 6.1 0.00 0.00 0.00 34 1013.8
20260504183726 76 219 0.9 6.1 0.00 0.00 0.00 33 1013.8
20260504182726 76 316 0.9 2.6 0.00 0.00 0.00 35 1014.0
20260504182226 76 305 0.9 1.7 0.00 0.00 0.00 41 1014.1
20260504181726 76 303 0.9 3.5 0.00 0.00 0.00 34 1014.1
20260504181226 76 99 0.9 4.3 0.00 0.00 0.00 34 1014.2
20260504175724 75 115 0.0 2.6 0.00 0.00 0.00 38 1014.3
20260504175224 74 115 0.9 2.6 0.00 0.00 0.00 37 1014.4
20260504174724 75 167 0.9 5.2 0.00 0.00 0.00 36 1014.5
20260504173723 74 280 0.9 2.6 0.00 0.00 0.00 39 1014.6
20260504173225 74 238 0.0 2.6 0.00 0.00 0.00 42 1014.7
20260504172725 74 272 0.0 6.1 0.00 0.00 0.00 38 1014.8
20260504172223 74 227 0.9 6.1 0.00 0.00 0.00 39 1014.9
20260504171723 74 213 0.9 5.2 0.00 0.00 0.00 41 1014.9
20260504171222 74 227 0.9 2.6 0.00 0.00 0.00 43 1015.0
20260504170722 74 263 0.9 1.7 0.00 0.00 0.00 40 1015.0
20260504160221 72 268 0.0 3.5 0.00 0.00 0.00 42 1015.6
20260504150722 69 288 0.9 5.2 0.00 0.00 0.00 49 1016.3
20260504150215 69 265 0.0 2.6 0.00 0.00 0.00 48 1016.2
20260504141211 64 294 0.0 2.6 0.00 0.00 0.00 55 1016.5
20260504140711 64 241 0.0 1.7 0.00 0.00 0.00 54 1016.5
20260504140212 64 257 0.0 0.0 0.00 0.00 0.00 56 1016.5
20260504130709 57 238 0.0 0.0 0.00 0.00 0.00 76 1016.4
20260504130210 56 238 0.0 0.0 0.00 0.00 0.00 79 1016.4
20260504110706 42 284 0.0 0.0 0.00 0.00 0.00 93 1015.6
20260504100158 42 285 0.0 0.0 0.00 0.00 0.00 93 1015.6
20260504081653 44 285 0.0 0.0 0.00 0.00 0.00 92 1015.7
20260504081152 44 284 0.0 0.0 0.00 0.00 0.00 92 1015.7
20260504080652 44 284 0.0 0.0 0.00 0.00 0.00 92 1015.7
20260504080153 44 285 0.0 0.0 0.00 0.00 0.00 92 1015.7
20260504070147 45 284 0.0 0.0 0.00 0.00 0.00 92 1016.1
20260504060144 46 285 0.0 0.0 0.00 0.00 0.00 91 1016.0
20260504050642 47 285 0.0 0.0 0.00 0.00 0.00 90 1016.4
20260504045640 48 285 0.0 0.0 0.00 0.00 0.00 89 1016.6
20260504045140 48 284 0.0 0.0 0.00 0.00 0.00 89 1016.6
20260504044640 48 285 0.0 0.0 0.00 0.00 0.00 89 1016.6
20260504044140 48 285 0.0 0.0 0.00 0.00 0.00 89 1016.7
20260504043639 48 285 0.0 0.0 0.00 0.00 0.00 89 1016.6
20260504043140 48 284 0.0 0.0 0.00 0.00 0.00 88 1016.5
20260504042639 48 285 0.0 0.0 0.00 0.00 0.00 88 1016.5
20260504042140 48 285 0.0 0.0 0.00 0.00 0.00 88 1016.5
20260504041640 48 285 0.0 0.0 0.00 0.00 0.00 88 1016.5
20260504041137 49 285 0.0 0.0 0.00 0.00 0.00 87 1016.4
20260504040637 49 285 0.0 0.0 0.00 0.00 0.00 87 1016.4
20260504035638 49 284 0.0 0.0 0.00 0.00 0.00 87 1016.4
20260504035136 49 285 0.0 0.0 0.00 0.00 0.00 86 1016.5
20260504034637 49 285 0.0 0.0 0.00 0.00 0.00 86 1016.4
20260504033637 50 284 0.0 0.0 0.00 0.00 0.00 85 1016.6
20260504033137 50 285 0.0 0.0 0.00 0.00 0.00 85 1016.6
20260504032637 50 284 0.0 0.0 0.00 0.00 0.00 85 1016.6
20260504032137 50 284 0.0 0.0 0.00 0.00 0.00 84 1016.6
20260504031635 50 285 0.0 0.0 0.00 0.00 0.00 84 1016.5
20260504031133 51 284 0.0 0.0 0.00 0.00 0.00 83 1016.5
20260504030633 51 284 0.0 0.0 0.00 0.00 0.00 83 1016.4
20260504025634 51 285 0.0 0.0 0.00 0.00 0.00 83 1016.4
20260504025133 51 284 0.0 0.0 0.00 0.00 0.00 82 1016.4
20260504024633 51 284 0.0 0.0 0.00 0.00 0.00 82 1016.4
20260504023634 52 285 0.0 0.0 0.00 0.00 0.00 80 1016.3
20260504023133 52 284 0.0 0.0 0.00 0.00 0.00 80 1016.2
20260504022130 53 285 0.0 0.0 0.00 0.00 0.00 79 1016.1
20260504020631 53 285 0.0 0.0 0.00 0.00 0.00 77 1015.8
20260504020132 54 285 0.0 0.0 0.00 0.00 0.00 76 1015.7
20260504015630 54 284 0.0 0.0 0.00 0.00 0.00 75 1015.7
20260504015128 54 285 0.0 0.0 0.00 0.00 0.00 74 1015.6
20260504014629 55 285 0.0 0.0 0.00 0.00 0.00 72 1015.4
20260504014128 55 284 0.0 0.0 0.00 0.00 0.00 72 1015.3
20260504013629 55 284 0.0 0.0 0.00 0.00 0.00 71 1015.3
20260504013129 56 285 0.0 0.0 0.00 0.00 0.00 71 1015.2
20260504012629 56 284 0.0 0.0 0.00 0.00 0.00 70 1015.1
20260504012128 56 285 0.0 0.0 0.00 0.00 0.00 69 1015.1
20260504011628 57 285 0.0 0.0 0.00 0.00 0.00 69 1015.0
20260504010629 58 284 0.0 0.0 0.00 0.00 0.00 66 1015.0
20260504005628 59 285 0.0 0.0 0.00 0.00 0.00 64 1014.9
20260504005130 59 285 0.0 0.0 0.00 0.00 0.00 62 1014.9
20260504004630 60 284 0.0 0.0 0.00 0.00 0.00 61 1014.8
20260504004128 60 285 0.0 0.0 0.00 0.00 0.00 60 1014.7
20260504003628 61 285 0.0 0.0 0.00 0.00 0.00 58 1014.7
20260504003128 62 284 0.0 0.0 0.00 0.00 0.00 57 1014.6
20260504002127 64 285 0.0 0.0 0.00 0.00 0.00 53 1014.6
20260504001626 64 284 0.0 0.0 0.00 0.00 0.00 52 1014.6
20260504000628 66 285 0.0 0.0 0.00 0.00 0.00 45 1014.5
20260503235127 68 284 0.0 0.9 0.00 0.00 0.00 43 1014.4
20260503234625 68 285 0.0 0.9 0.00 0.00 0.00 43 1014.5
20260503234125 69 284 0.0 0.9 0.00 0.00 0.00 39 1014.5
20260503233626 69 288 0.0 0.0 0.00 0.00 0.00 42 1014.5
20260503233124 69 288 0.0 0.9 0.00 0.00 0.00 41 1014.5
20260503232624 70 267 0.0 0.9 0.00 0.00 0.00 38 1014.5
20260503231624 70 277 0.9 3.5 0.00 0.00 0.00 37 1014.5
20260503231125 71 298 0.9 3.5 0.00 0.00 0.00 35 1014.5
20260503230622 71 267 0.0 1.7 0.00 0.00 0.00 35 1014.6
20260503225622 71 311 0.0 0.9 0.00 0.00 0.00 35 1014.6
20260503225120 71 298 0.0 1.7 0.00 0.00 0.00 35 1014.5
20260503224621 71 248 0.9 2.6 0.00 0.00 0.00 35 1014.6
20260503224122 71 310 0.9 2.6 0.00 0.00 0.00 35 1014.6
20260503223620 72 211 0.0 2.6 0.00 0.00 0.00 35 1014.5
20260503223120 72 248 0.0 2.6 0.00 0.00 0.00 34 1014.5
20260503222120 72 338 0.0 3.5 0.00 0.00 0.00 37 1014.6
20260503221620 73 277 0.0 3.5 0.00 0.00 0.00 35 1014.6
20260503221121 73 275 0.0 1.7 0.00 0.00 0.00 35 1014.7
20260503220620 72 242 0.0 3.5 0.00 0.00 0.00 34 1014.7
20260503215619 72 328 0.0 2.6 0.00 0.00 0.00 34 1014.8
20260503215118 72 329 0.0 1.7 0.00 0.00 0.00 35 1014.9